星链-1436 (VISOR (STARLINK-1436 (VISORSAT) )

导读

STARLINK-1436是美国SpaceX公司星链(Starlink)星座的成员卫星,于2020年6月4日发射入轨。作为星链互联网星座的一员,它运行在近地轨道,旨在与其他星链卫星协同,为全球提供高速低延迟的宽带互联网服务,推动全球网络覆盖,尤其助力偏远地区联网,是SpaceX大规模卫星组网计划的重要组成部分。

Basic Information
目录编号:
45713
目录名称:
STARLINK-1436
国际标识:
2020-035BJ
轨道中心:
EARTH
卫星名称:
星链-1436 (VISOR
卫星全名:
星链-1436 (VISOR (STARLINK-1436 (VISORSAT) )
卫星状态:
已陨落 最后检测时间 2024-06-23
发射日期:
2020-06-04 UTC
国别 :
美国 (US)
星等 :
--
Orbit Information
数据来源 国际轨道数据
星历时间: 2024-06-23T12:39:07+0800
轨道信息已过期721天
半长轴: 6546.972km
偏心率: 0.0009378
轨道倾角: 53.044°
近地点辐角 283.619°
升交点赤经 319.348°
平近点角 199.995°
近地点: 162.697km
远地点: 174.977km
周期: 87.866分钟
每日圈数: 16.388607
Detailed Information
固有亮度:
5
最大亮度:
2.5
卫星平台:
Starlink V1.0
覆盖范围:
全球
运营商:
太空探索技术公司
运营商所在国:
美国
制造商(研发单位):
太空探索技术公司
制造商所在国:
美国
使用方式:
暂无
Satellite Introduction
星链(Starlink)计划是由太空探索技术公司(SpaceX)提出的一个巨型低轨卫星互联网星座项目,计划在2019年至2024年间在太空搭建由约1.2万颗卫星组成的“星链”网络,其中1584颗将部署在地球上空550千米处的近地轨道,并从2020年开始工作。该卫星已陨落。